Location: Unspecified
(0.0000°N, 0.0000°E)
Time: 10:20:39
(UTC+00:00)

N. Korean satellite - Pass Details

Date: 28 May 2020
Orbit: 455 x 505 km, 97.2° (Epoch: 30 May)

Event Time Altitude Azimuth Distance (km) Brightness Sun altitude
Rises 04:21:48 0° 48° (NE) 2,583 11.5 -22.1°
Reaches altitude 10° 04:25:34 10° 89° (E) 1,696 10.3 -21.3°
Maximum altitude 04:26:20 11° 101° (E) 1,661 10.0 -21.1°
Drops below altitude 10° 04:27:05 10° 113° (ESE) 1,693 9.9 -20.9°
Sets 04:30:49 0° 154° (SSE) 2,567 10.3 -20.1°
